Tracking 20383 objects as of 23-Feb-2020
HD Live streaming from Space Station
objects crossing your sky now
Track the group of recently launched Starlink satellites

METEOR 2-17 DEB

Track METEOR 2-17 DEB now!
10-day predictions


NORAD ID: 35371
Int'l Code: 1988-005AF
Perigee: 903.2 km
Apogee: 932.6 km
Inclination: 82.5 °
Period: 103.2 minutes
Semi major axis: 7288 km
RCS: 0.0006 m2 (small)
Launch date: January 30, 1988
Source: Commonwealth of Independent States (former USSR) (CIS)
Launch site: PLESETSK MISSILE AND SPACE COMPLEX (PKMTR)

Note: This is SATELLITE DEBRIS
aabbcc
Your satellite tracking list
Your tracking list is empty




NASA's NSSDC Master Catalog

Two Line Element Set (TLE):
1 35371U 88005AF  20048.98570025 +.00001324 +00000-0 +96965-3 0  9998
2 35371 082.5181 319.8707 0020191 009.1195 351.0333 13.95116493337394
Source of the keplerian elements: AFSPC